Location: Newark
(13.8117°N, 3.6025°W)
Time: 18:50:25
(UTC+00:00)

Vanguard 2 - Pass Details

Date: 29 August 2019
Orbit: 554 x 2937 km, 32.9° (Epoch: 14 October)

Event Time Altitude Azimuth Distance (km) Brightness Sun altitude
Rises 19:59:45 0° 275° (W) 5,559 13.3 -22.5°
Reaches altitude 10° 20:03:56 10° 264° (W) 4,887 12.5 -23.5°
Maximum altitude 20:15:27 27° 213° (SSW) 4,264 11.4 -26.2°
Drops below altitude 10° 20:29:06 10° 163° (SSE) 5,758 11.6 -29.3°
Enters shadow 20:30:10 - 160° (SSE) 5,925 11.7 -29.6°
Sets 20:34:48 0° 151° (SSE) 6,692 - -30.6°
